TimeEDT,TemperatureF,Dew PointF,Humidity,Sea Level PressureIn,VisibilityMPH,Wind Direction,Wind SpeedMPH,Gust SpeedMPH,PrecipitationIn,Events,Conditions,WindDirDegrees,DateUTC
12:15 AM,51.8,50.0,94,30.22,7.0,Calm,Calm,-,N/A,,Mostly Cloudy,0,2013-10-31 04:15:00
12:35 AM,51.8,50.0,94,30.21,5.0,Calm,Calm,-,N/A,,Mostly Cloudy,0,2013-10-31 04:35:00
12:55 AM,51.8,50.0,94,30.20,5.0,Calm,Calm,-,N/A,,Overcast,0,2013-10-31 04:55:00
1:15 AM,51.8,50.0,94,30.20,5.0,Calm,Calm,-,N/A,,Overcast,0,2013-10-31 05:15:00
1:35 AM,51.8,50.0,94,30.20,5.0,Calm,Calm,-,N/A,,Overcast,0,2013-10-31 05:35:00
1:55 AM,50.0,48.2,94,30.19,3.0,Calm,Calm,-,N/A,,Unknown,0,2013-10-31 05:55:00
2:15 AM,46.4,46.4,100,30.19,0.2,Calm,Calm,-,N/A,,Mostly Cloudy,0,2013-10-31 06:15:00
2:35 AM,44.6,44.6,100,30.20,0.2,Calm,Calm,-,N/A,,Overcast,0,2013-10-31 06:35:00
2:55 AM,44.6,42.8,93,30.20,0.2,Calm,Calm,-,N/A,,Overcast,0,2013-10-31 06:55:00
3:15 AM,42.8,42.8,100,30.20,1.0,Calm,Calm,-,N/A,,Mostly Cloudy,0,2013-10-31 07:15:00
3:35 AM,44.6,42.8,93,30.20,0.2,Calm,Calm,-,N/A,,Overcast,0,2013-10-31 07:35:00
3:55 AM,42.8,42.8,100,30.18,0.2,Calm,Calm,-,N/A,,Overcast,0,2013-10-31 07:55:00
4:15 AM,42.8,41.0,93,30.17,0.5,Calm,Calm,-,N/A,,Overcast,0,2013-10-31 08:15:00
4:35 AM,42.8,42.8,100,30.16,0.2,Calm,Calm,-,N/A,,Overcast,0,2013-10-31 08:35:00
4:55 AM,42.8,42.8,100,30.16,0.2,Calm,Calm,-,N/A,,Overcast,0,2013-10-31 08:55:00
5:15 AM,42.8,42.8,100,30.16,0.2,Calm,Calm,-,N/A,,Overcast,0,2013-10-31 09:15:00
5:35 AM,42.8,42.8,100,30.16,1.2,Calm,Calm,-,N/A,,Overcast,0,2013-10-31 09:35:00
5:55 AM,46.4,44.6,93,30.15,1.8,Calm,Calm,-,N/A,,Overcast,0,2013-10-31 09:55:00
6:15 AM,48.2,48.2,100,30.14,1.8,ENE,3.5,-,N/A,,Overcast,70,2013-10-31 10:15:00
6:35 AM,50.0,50.0,100,30.14,2.0,Calm,Calm,-,N/A,,Overcast,0,2013-10-31 10:35:00
6:55 AM,51.8,51.8,100,30.13,1.8,SE,3.5,-,N/A,,Overcast,140,2013-10-31 10:55:00
7:15 AM,51.8,51.8,100,30.12,1.2,Calm,Calm,-,N/A,,Overcast,0,2013-10-31 11:15:00
7:35 AM,51.8,51.8,100,30.13,1.0,Calm,Calm,-,N/A,,Overcast,0,2013-10-31 11:35:00
7:55 AM,51.8,51.8,100,30.13,0.8,Calm,Calm,-,N/A,,Overcast,0,2013-10-31 11:55:00
8:15 AM,53.6,53.6,100,30.14,1.0,Calm,Calm,-,N/A,,Overcast,0,2013-10-31 12:15:00
8:35 AM,53.6,53.6,100,30.16,1.0,SSW,4.6,-,N/A,,Overcast,210,2013-10-31 12:35:00
8:55 AM,53.6,53.6,100,30.14,1.2,Calm,Calm,-,N/A,,Overcast,0,2013-10-31 12:55:00
9:15 AM,53.6,53.6,100,30.13,1.5,SSE,3.5,-,N/A,,Overcast,150,2013-10-31 13:15:00
9:35 AM,55.4,53.6,94,30.12,2.0,Calm,Calm,-,N/A,,Overcast,0,2013-10-31 13:35:00
9:55 AM,55.4,55.4,100,30.11,3.0,South,4.6,-,N/A,,Overcast,190,2013-10-31 13:55:00
10:15 AM,57.2,55.4,94,30.10,4.0,South,3.5,-,N/A,,Overcast,190,2013-10-31 14:15:00
10:35 AM,59.0,55.4,88,30.09,4.0,Calm,Calm,-,N/A,,Overcast,0,2013-10-31 14:35:00
10:55 AM,59.0,55.4,88,30.09,5.0,South,3.5,-,N/A,,Mostly Cloudy,190,2013-10-31 14:55:00
11:15 AM,59.0,55.4,88,30.09,3.0,Calm,Calm,-,N/A,,Overcast,0,2013-10-31 15:15:00
11:35 AM,59.0,55.4,88,30.08,2.5,Calm,Calm,-,N/A,,Overcast,0,2013-10-31 15:35:00
11:55 AM,59.0,57.2,94,30.06,2.5,ESE,4.6,-,N/A,,Overcast,110,2013-10-31 15:55:00
12:15 PM,60.8,57.2,88,30.05,4.0,South,3.5,-,N/A,,Scattered Clouds,180,2013-10-31 16:15:00
12:35 PM,62.6,59.0,88,30.04,7.0,South,4.6,-,N/A,,Scattered Clouds,170,2013-10-31 16:35:00
12:55 PM,64.4,59.0,83,30.01,7.0,SSW,6.9,-,N/A,,Scattered Clouds,200,2013-10-31 16:55:00
1:15 PM,64.4,59.0,83,30.00,10.0,South,8.1,-,N/A,,Clear,190,2013-10-31 17:15:00
1:35 PM,66.2,59.0,78,29.99,10.0,SSW,10.4,-,N/A,,Clear,200,2013-10-31 17:35:00
1:55 PM,66.2,57.2,73,29.99,10.0,SSW,11.5,-,N/A,,Clear,210,2013-10-31 17:55:00
2:15 PM,66.2,57.2,73,29.98,10.0,SW,9.2,-,N/A,,Clear,230,2013-10-31 18:15:00
2:35 PM,66.2,57.2,73,29.98,10.0,SSW,9.2,-,N/A,,Clear,200,2013-10-31 18:35:00
2:55 PM,66.2,59.0,78,29.98,10.0,SSW,5.8,-,N/A,,Scattered Clouds,200,2013-10-31 18:55:00
3:15 PM,66.2,59.0,78,29.97,10.0,SSW,6.9,-,N/A,,Clear,200,2013-10-31 19:15:00
3:35 PM,66.2,59.0,78,29.97,10.0,SSW,5.8,-,N/A,,Clear,200,2013-10-31 19:35:00
3:55 PM,66.2,59.0,78,29.96,10.0,South,3.5,-,N/A,,Clear,190,2013-10-31 19:55:00
4:15 PM,66.2,59.0,78,29.95,10.0,SSW,4.6,-,N/A,,Clear,200,2013-10-31 20:15:00
4:35 PM,66.2,57.2,73,29.95,10.0,South,5.8,-,N/A,,Clear,190,2013-10-31 20:35:00
4:55 PM,66.2,57.2,73,29.94,10.0,South,5.8,-,N/A,,Scattered Clouds,190,2013-10-31 20:55:00
5:15 PM,64.4,57.2,77,29.93,10.0,South,3.5,-,N/A,,Scattered Clouds,190,2013-10-31 21:15:00
5:35 PM,66.2,55.4,68,29.91,10.0,SSE,8.1,-,N/A,,Scattered Clouds,160,2013-10-31 21:35:00
5:55 PM,66.2,55.4,68,29.92,10.0,South,8.1,-,N/A,,Clear,190,2013-10-31 21:55:00
6:15 PM,64.4,55.4,73,29.92,10.0,South,6.9,-,N/A,,Clear,190,2013-10-31 22:15:00
6:35 PM,64.4,55.4,73,29.91,10.0,South,9.2,-,N/A,,Clear,170,2013-10-31 22:35:00
6:55 PM,66.2,55.4,68,29.91,10.0,South,11.5,18.4,N/A,,Clear,180,2013-10-31 22:55:00
7:15 PM,64.4,55.4,73,29.90,10.0,South,8.1,-,N/A,,Clear,180,2013-10-31 23:15:00
7:35 PM,64.4,55.4,73,29.91,10.0,South,9.2,-,N/A,,Clear,190,2013-10-31 23:35:00
7:55 PM,64.4,55.4,73,29.91,10.0,South,5.8,-,N/A,,Clear,190,2013-10-31 23:55:00
8:15 PM,64.4,55.4,73,29.90,10.0,South,8.1,-,N/A,,Clear,190,2013-11-01 00:15:00
8:35 PM,64.4,55.4,73,29.90,10.0,SSW,6.9,-,N/A,,Clear,200,2013-11-01 00:35:00
8:55 PM,62.6,55.4,77,29.89,10.0,South,6.9,-,N/A,,Clear,190,2013-11-01 00:55:00
9:15 PM,62.6,55.4,77,29.88,10.0,South,5.8,-,N/A,,Scattered Clouds,190,2013-11-01 01:15:00
9:35 PM,60.8,55.4,82,29.87,10.0,South,5.8,-,N/A,,Overcast,180,2013-11-01 01:35:00
9:55 PM,60.8,57.2,88,29.87,7.0,South,4.6,-,N/A,,Overcast,170,2013-11-01 01:55:00
10:15 PM,60.8,57.2,88,29.87,7.0,South,4.6,-,N/A,,Overcast,180,2013-11-01 02:15:00
10:35 PM,60.8,57.2,88,29.85,10.0,SSE,6.9,-,N/A,,Overcast,160,2013-11-01 02:35:00
10:55 PM,60.8,57.2,88,29.84,10.0,South,5.8,-,N/A,,Overcast,170,2013-11-01 02:55:00
11:15 PM,60.8,57.2,88,29.83,7.0,SSW,5.8,-,N/A,,Overcast,200,2013-11-01 03:15:00
11:35 PM,60.8,57.2,88,29.81,10.0,South,5.8,-,N/A,,Scattered Clouds,190,2013-11-01 03:35:00
11:55 PM,60.8,59.0,94,29.79,10.0,South,5.8,-,N/A,,Mostly Cloudy,180,2013-11-01 03:55:00